Location: *
(50.8512°N, 5.6907°E)
Time: 04:43:50
(UTC+00:00)

SeaSat 1 - Pass Details

Date: 09 April 2020
Orbit: 745 x 746 km, 108.0° (Epoch: 01 June)

Event Time Altitude Azimuth Distance (km) Brightness Sun altitude
Rises 19:49:20 0° 26° (NNE) 3,202 5.8 -13.3°
Reaches altitude 10° 19:51:42 10° 20° (NNE) 2,274 5.1 -13.6°
Maximum altitude 19:56:19 42° 311° (NW) 1,068 3.9 -14.2°
Drops below altitude 10° 20:00:55 10° 242° (WSW) 2,263 5.3 -14.8°
Sets 20:03:16 0° 235° (SW) 3,183 6.0 -15.1°
